Sarasota, FL

4:08 PM EST on November 22, 2017 (GMT -0500)
Sarasota-bradenton

Weather History for KSRQ - October, 2012

Change the Weather History Date:

Friday, October 5, 2012

  Actual Average Record
Temperature  
Mean Temperature 81 °F 79 °F  
Max Temperature 88 °F 87 °F 93 °F (1959)
Min Temperature 73 °F 71 °F 56 °F (1929)
Degree Days  
Heating Degree Days 0 0  
Month to date heating degree days 0 0  
Since 1 July heating degree days 0 0  
Cooling Degree Days 16 14  
Month to date cooling degree days 82 72  
Year to date cooling degree days 3346 2861  
Growing Degree Days 30 (Base 50)    
Moisture  
Dew Point 73 °F    
Average Humidity 82    
Maximum Humidity 93    
Minimum Humidity 68    
Precipitation  
Precipitation 0.08 in 0.12 in 2.86 in (1995)
Month to date precipitation 3.32 0.66  
Year to date precipitation 43.69 46.09  
Sea Level Pressure  
Sea Level Pressure 30.02 in    
Wind  
Wind Speed 7 mph (ENE)    
Max Wind Speed 20 mph    
Max Gust Speed 24 mph    
Visibility 10 miles    
Events Rain    
T = Trace of Precipitation, MM = Missing Value Source: NWS Daily Summary

Daily Weather History Graph

Daily Weather History Graph

Search for Another Location

Airport or City:

Trip Planner

Search our weather history database for the weather conditions in past years. The results will help you decide how hot, cold, wet, or windy it might be!

Date:

Astronomy

Oct. 05, 2012 Rise Set
Actual Time 7:25 AM EDT 7:11 PM EDT
Civil Twilight 7:01 AM EDT 7:34 PM EDT
Nautical Twilight 6:34 AM EDT 8:01 PM EDT
Astronomical Twilight 6:07 AM EDT 8:28 PM EDT
Moon 10:58 PM EDT (10/5) 12:07 PM EDT (10/5)
Length of Visible Light 12h 32m
Length of Day
11h 46m
Waning Gibbous, 74% of the Moon is Illuminated
Oct 5
Waning Gibbous
Oct 8
Last Quarter
Oct 15
New
Oct 21
First Quarter
Oct 29
Full

Hourly Weather History & Observations

Time (EDT) Temp. Heat Index Dew Point Humidity Pressure Visibility Wind Dir Wind Speed Gust Speed Precip Events Conditions
12:53 AM 73.0 °F - 70.0 °F 90% 30.10 in 10.0 mi ENE 4.6 mph - N/A   Clear
1:53 AM 73.9 °F - 70.0 °F 87% 30.09 in 10.0 mi ENE 9.2 mph - N/A   Clear
2:53 AM 73.9 °F - 70.0 °F 87% 30.07 in 10.0 mi East 8.1 mph - N/A   Clear
3:53 AM 73.0 °F - 70.0 °F 90% 30.05 in 10.0 mi ENE 5.8 mph - N/A   Clear
4:53 AM 73.0 °F - 71.1 °F 93% 30.04 in 10.0 mi East 5.8 mph - N/A   Clear
5:53 AM 73.0 °F - 71.1 °F 93% 30.06 in 10.0 mi ENE 4.6 mph - N/A   Clear
6:53 AM 73.9 °F - 72.0 °F 93% 30.06 in 10.0 mi ENE 5.8 mph - N/A   Clear
7:53 AM 73.9 °F - 72.0 °F 93% 30.06 in 10.0 mi East 5.8 mph - N/A   Clear
8:53 AM 77.0 °F - 73.9 °F 90% 30.06 in 10.0 mi East 9.2 mph - N/A   Clear
9:53 AM 82.0 °F 89.4 °F 75.9 °F 82% 30.05 in 10.0 mi ESE 9.2 mph - N/A   Clear
11:53 AM 87.1 °F 97.3 °F 75.9 °F 69% 30.05 in 10.0 mi Calm Calm - N/A   Mostly Cloudy
12:04 PM 87.8 °F 97.6 °F 75.2 °F 66% 30.05 in 10.0 mi South 5.8 mph - N/A   Scattered Clouds
1:53 PM 88.0 °F 100.2 °F 77.0 °F 70% 30.02 in 10.0 mi West 11.5 mph - N/A   Partly Cloudy
2:53 PM 84.9 °F 94.1 °F 75.9 °F 74% 29.99 in 10.0 mi WNW 11.5 mph - N/A   Scattered Clouds
3:53 PM 84.9 °F 94.1 °F 75.9 °F 74% 29.96 in 10.0 mi West 11.5 mph - N/A   Clear
4:53 PM 84.0 °F 91.9 °F 75.0 °F 74% 29.94 in 10.0 mi WNW 10.4 mph - N/A   Clear
5:53 PM 84.0 °F 91.2 °F 73.9 °F 72% 29.95 in 10.0 mi NW 9.2 mph - N/A   Clear
6:53 PM 82.0 °F 87.9 °F 73.9 °F 76% 29.95 in 10.0 mi NNW 5.8 mph - N/A   Clear
7:53 PM 82.0 °F 87.9 °F 73.9 °F 76% 29.98 in 10.0 mi North 5.8 mph - N/A   Clear
8:21 PM 78.8 °F - 71.6 °F 78% 30.00 in 10.0 mi ENE 16.1 mph 23.0 mph 0.00 in Rain Light Rain
8:53 PM 77.0 °F - 72.0 °F 84% 30.00 in 10.0 mi East 10.4 mph - 0.08 in Rain Light Rain
9:53 PM 75.9 °F - 73.0 °F 91% 30.01 in 10.0 mi ESE 5.8 mph - 0.00 in   Partly Cloudy
10:53 PM 75.9 °F - 72.0 °F 87% 30.00 in 10.0 mi Calm Calm - N/A   Partly Cloudy
11:53 PM 75.0 °F - 72.0 °F 90% 29.98 in 9.0 mi Calm Calm - N/A   Clear